When you browse on this site, cookies collect data to enhance your experience and personalize the content and advertising you see.
Visit our Privacy Policy to learn more. By continuing to use the site, you agree to this use of cookies and data.
  • en France
  • Liste des pays
  • À 7 jours
  • Température de l'eau
  • Carte satellitaire
  • Carte météo
  • Widgets météo
  • user-avatar
    Se connecter

    Météo par heure à Buon Ma Thuot

    Ce jour, 24 Mai, Vendredi

    Heure Température Précipitation Vent Pression Humidité
    00:00 +23°C° 0.1 mm 0 m/s 721 mmHg 93%
    01:00 +23°C° 0 mm 0 m/s 721 mmHg 94%
    02:00 +23°C° 0.1 mm 0 m/s 721 mmHg 94%
    03:00 +23°C° 0.1 mm 0 m/s 720 mmHg 94%
    04:00 +22°C° 0.1 mm 0 m/s 720 mmHg 94%
    05:00 +23°C° 0.1 mm 0 m/s 720 mmHg 91%
    06:00 +24°C° 0.1 mm 0 m/s 721 mmHg 88%
    07:00 +25°C° 0.1 mm 0 m/s 721 mmHg 86%
    08:00 +29°C° 0 mm 1 m/s 721 mmHg 76%
    09:00 +31°C° 0 mm 1 m/s 721 mmHg 66%
    10:00 +33°C° 0 mm 1 m/s 722 mmHg 56%
    11:00 +34°C° 0 mm 1 m/s 721 mmHg 52%
    12:00 +35°C° 0 mm 1 m/s 721 mmHg 48%
    13:00 +37°C° 0 mm 2 m/s 721 mmHg 45%
    14:00 +36°C° 0.1 mm 2 m/s 720 mmHg 48%
    15:00 +35°C° 0.1 mm 2 m/s 720 mmHg 52%
    16:00 +35°C° 0.1 mm 2 m/s 719 mmHg 56%
    17:00 +32°C° 0.4 mm 1 m/s 719 mmHg 65%
    18:00 +29°C° 0.4 mm 1 m/s 719 mmHg 74%
    19:00 +25°C° 0.4 mm 0 m/s 719 mmHg 84%
    20:00 +25°C° 0 mm 0 m/s 719 mmHg 86%
    21:00 +24°C° 0 mm 0 m/s 720 mmHg 87%
    22:00 +24°C° 0 mm 0 m/s 720 mmHg 89%
    23:00 +24°C° 0 mm 0 m/s 720 mmHg 90%

    Demain, 25 Mai, Samedi

    Heure Température Précipitation Vent Pression Humidité
    00:00 +23°C° 0 mm 0 m/s 720 mmHg 90%
    01:00 +23°C° 0 mm 0 m/s 719 mmHg 91%
    02:00 +23°C° 0 mm 0 m/s 719 mmHg 91%
    03:00 +23°C° 0 mm 0 m/s 719 mmHg 92%
    04:00 +23°C° 0 mm 0 m/s 718 mmHg 92%
    05:00 +26°C° 0 mm 1 m/s 719 mmHg 88%
    06:00 +27°C° 0 mm 1 m/s 719 mmHg 84%
    07:00 +28°C° 0 mm 1 m/s 719 mmHg 80%
    08:00 +30°C° 0 mm 1 m/s 720 mmHg 71%
    09:00 +32°C° 0 mm 1 m/s 720 mmHg 62%
    10:00 +34°C° 0 mm 1 m/s 720 mmHg 53%
    11:00 +35°C° 0.3 mm 1 m/s 720 mmHg 53%
    12:00 +36°C° 0.3 mm 2 m/s 719 mmHg 53%
    13:00 +36°C° 0.3 mm 2 m/s 719 mmHg 53%
    14:00 +35°C° 2.3 mm 2 m/s 718 mmHg 61%
    15:00 +32°C° 2.3 mm 2 m/s 718 mmHg 70%
    16:00 +31°C° 2.3 mm 2 m/s 717 mmHg 79%
    17:00 +29°C° 2.1 mm 1 m/s 717 mmHg 83%
    18:00 +28°C° 2.1 mm 1 m/s 718 mmHg 88%
    19:00 +26°C° 2.1 mm 1 m/s 718 mmHg 92%
    20:00 +26°C° 0 mm 1 m/s 718 mmHg 92%
    21:00 +26°C° 0 mm 1 m/s 719 mmHg 92%
    22:00 +25°C° 0 mm 1 m/s 719 mmHg 92%
    23:00 +25°C° 0 mm 1 m/s 719 mmHg 92%

    Après-demain, 26 Mai, Dimanche

    Heure Température Précipitation Vent Pression Humidité
    00:00 +25°C° 0 mm 1 m/s 719 mmHg 93%
    01:00 +25°C° 0 mm 1 m/s 718 mmHg 93%
    02:00 +25°C° 0 mm 1 m/s 718 mmHg 93%
    03:00 +25°C° 0 mm 1 m/s 718 mmHg 93%
    04:00 +25°C° 0 mm 1 m/s 718 mmHg 94%
    05:00 +25°C° 0 mm 1 m/s 718 mmHg 91%
    06:00 +26°C° 0 mm 1 m/s 719 mmHg 88%
    07:00 +27°C° 0 mm 1 m/s 719 mmHg 86%
    08:00 +29°C° 0 mm 1 m/s 720 mmHg 76%
    09:00 +31°C° 0 mm 1 m/s 720 mmHg 67%
    10:00 +34°C° 0 mm 2 m/s 720 mmHg 58%
    11:00 +32°C° 2 mm 2 m/s 720 mmHg 64%
    12:00 +32°C° 2 mm 2 m/s 719 mmHg 71%
    13:00 +31°C° 2 mm 2 m/s 719 mmHg 78%
    14:00 +31°C° 1.2 mm 2 m/s 718 mmHg 77%
    15:00 +31°C° 1.2 mm 2 m/s 718 mmHg 76%
    16:00 +31°C° 1.2 mm 1 m/s 717 mmHg 74%
    17:00 +29°C° 1.2 mm 1 m/s 718 mmHg 80%
    18:00 +28°C° 1.2 mm 1 m/s 718 mmHg 86%
    19:00 +24°C° 1.2 mm 0 m/s 718 mmHg 92%
    20:00 +24°C° 0.2 mm 0 m/s 719 mmHg 92%
    21:00 +26°C° 0.2 mm 1 m/s 719 mmHg 93%
    22:00 +25°C° 0.2 mm 1 m/s 720 mmHg 93%
    23:00 +25°C° 0 mm 1 m/s 719 mmHg 93%

    27 Mai, Lundi

    Heure Température Précipitation Vent Pression Humidité
    00:00 +25°C° 0 mm 1 m/s 719 mmHg 93%
    01:00 +24°C° 0 mm 1 m/s 718 mmHg 93%
    02:00 +24°C° 0 mm 1 m/s 718 mmHg 93%
    03:00 +24°C° 0 mm 1 m/s 718 mmHg 93%
    04:00 +24°C° 0 mm 1 m/s 717 mmHg 93%
    05:00 +25°C° 0 mm 1 m/s 718 mmHg 90%
    06:00 +26°C° 0 mm 1 m/s 719 mmHg 87%
    07:00 +27°C° 0 mm 1 m/s 719 mmHg 84%
    08:00 +29°C° 0.1 mm 1 m/s 720 mmHg 75%
    09:00 +31°C° 0.1 mm 1 m/s 720 mmHg 65%
    10:00 +34°C° 0.1 mm 2 m/s 720 mmHg 55%
    11:00 +35°C° 0.5 mm 2 m/s 720 mmHg 55%
    12:00 +35°C° 0.5 mm 2 m/s 719 mmHg 54%
    13:00 +36°C° 0.5 mm 2 m/s 718 mmHg 54%
    14:00 +34°C° 1.8 mm 2 m/s 718 mmHg 63%
    15:00 +31°C° 1.8 mm 2 m/s 718 mmHg 73%
    16:00 +30°C° 1.8 mm 1 m/s 717 mmHg 83%
    17:00 +28°C° 0.8 mm 1 m/s 718 mmHg 86%
    18:00 +27°C° 0.8 mm 1 m/s 718 mmHg 89%
    19:00 +26°C° 0.8 mm 1 m/s 719 mmHg 92%
    20:00 +25°C° 0 mm 1 m/s 719 mmHg 93%
    21:00 +25°C° 0 mm 1 m/s 720 mmHg 93%
    22:00 +25°C° 0 mm 1 m/s 720 mmHg 94%
    23:00 +24°C° 0 mm 1 m/s 720 mmHg 93%

    28 Mai, Mardi

    Heure Température Précipitation Vent Pression Humidité
    00:00 +24°C° 0 mm 1 m/s 719 mmHg 93%
    01:00 +22°C° 0 mm 0 m/s 719 mmHg 93%
    02:00 +22°C° 0.1 mm 0 m/s 718 mmHg 94%
    03:00 +22°C° 0.1 mm 0 m/s 718 mmHg 94%
    04:00 +21°C° 0.1 mm 0 m/s 718 mmHg 94%
    05:00 +22°C° 0 mm 0 m/s 719 mmHg 92%
    06:00 +23°C° 0 mm 0 m/s 719 mmHg 89%
    07:00 +24°C° 0 mm 0 m/s 720 mmHg 86%
    08:00 +28°C° 0.1 mm 1 m/s 720 mmHg 76%
    09:00 +30°C° 0.1 mm 1 m/s 721 mmHg 66%
    10:00 +33°C° 0.1 mm 1 m/s 721 mmHg 56%
    11:00 +33°C° 0.2 mm 1 m/s 720 mmHg 53%
    12:00 +34°C° 0.2 mm 1 m/s 720 mmHg 49%
    13:00 +35°C° 0.2 mm 1 m/s 719 mmHg 46%
    14:00 +33°C° 0.9 mm 1 m/s 719 mmHg 57%
    15:00 +32°C° 0.9 mm 1 m/s 718 mmHg 68%
    16:00 +30°C° 0.9 mm 1 m/s 718 mmHg 79%
    17:00 +28°C° 0.8 mm 1 m/s 719 mmHg 83%
    18:00 +25°C° 0.8 mm 0 m/s 719 mmHg 88%
    19:00 +24°C° 0.8 mm 0 m/s 719 mmHg 92%
    20:00 +23°C° 0.1 mm 0 m/s 720 mmHg 92%
    21:00 +23°C° 0.1 mm 0 m/s 720 mmHg 92%
    22:00 +23°C° 0.1 mm 0 m/s 720 mmHg 93%
    23:00 +23°C° 0 mm 0 m/s 720 mmHg 93%

    29 Mai, Mercredi

    Heure Température Précipitation Vent Pression Humidité
    00:00 +22°C° 0 mm 0 m/s 720 mmHg 93%
    01:00 +22°C° 0 mm 0 m/s 719 mmHg 93%
    02:00 +22°C° 0.4 mm 0 m/s 719 mmHg 93%
    03:00 +22°C° 0.4 mm 0 m/s 719 mmHg 93%
    04:00 +22°C° 0.4 mm 0 m/s 719 mmHg 94%
    05:00 +22°C° 0.3 mm 0 m/s 720 mmHg 93%
    06:00 +23°C° 0.3 mm 0 m/s 720 mmHg 92%
    07:00 +23°C° 0.3 mm 0 m/s 721 mmHg 91%
    08:00 +25°C° 0.1 mm 0 m/s 721 mmHg 82%
    09:00 +29°C° 0.1 mm 1 m/s 721 mmHg 73%
    10:00 +31°C° 0.1 mm 1 m/s 721 mmHg 63%
    11:00 +31°C° 0.5 mm 1 m/s 721 mmHg 64%
    12:00 +32°C° 0.5 mm 1 m/s 720 mmHg 64%
    13:00 +32°C° 0.5 mm 1 m/s 720 mmHg 65%
    14:00 +31°C° 0.5 mm 1 m/s 720 mmHg 67%
    15:00 +31°C° 0.5 mm 1 m/s 719 mmHg 69%
    16:00 +30°C° 0.5 mm 1 m/s 719 mmHg 71%
    17:00 +29°C° 0 mm 1 m/s 719 mmHg 75%
    18:00 +25°C° 0 mm 0 m/s 719 mmHg 80%
    19:00 +24°C° 0 mm 0 m/s 720 mmHg 84%
    20:00 +24°C° 0 mm 0 m/s 720 mmHg 85%
    21:00 +24°C° 0 mm 0 m/s 720 mmHg 85%
    22:00 +23°C° 0 mm 0 m/s 721 mmHg 85%
    23:00 +23°C° 0 mm 0 m/s 721 mmHg 85%
    Voir plus